Delaware, OH

2:53 PM EDT on September 29, 2016 (GMT -0400)
Delaware Municipal

Weather History for KDLZ - December, 2013

Change the Weather History Date:

Sunday, December 15, 2013

  Actual Average Record
Temperature  
Mean Temperature 22 °F -  
Max Temperature 26 °F 40 °F 64 °F (1975)
Min Temperature 19 °F 24 °F -6 °F (1958)
Degree Days  
Heating Degree Days 42    
Moisture  
Dew Point 18 °F    
Average Humidity 81    
Maximum Humidity 100    
Minimum Humidity 63    
Precipitation  
Precipitation 0.00 in - - ()
Sea Level Pressure  
Sea Level Pressure 29.95 in    
Wind  
Wind Speed 12 mph (West)    
Max Wind Speed 23 mph    
Max Gust Speed 33 mph    
Visibility 9 miles    
Events Snow    
Averages and records for this station are not official NWS values.
T = Trace of Precipitation, MM = Missing Value Source: NWS Daily Summary

Daily Weather History Graph

Daily Weather History Graph

Search for Another Location

Airport or City:

Trip Planner

Search our weather history database for the weather conditions in past years. The results will help you decide how hot, cold, wet, or windy it might be!

Date:

Astronomy

Dec. 15, 2013 Rise Set
Actual Time 7:48 AM EST 5:07 PM EST
Civil Twilight 7:17 AM EST 5:38 PM EST
Nautical Twilight 6:43 AM EST 6:12 PM EST
Astronomical Twilight 6:10 AM EST 6:45 PM EST
Moon 4:10 PM EST (12/15) 6:03 AM EST (12/15)
Length of Visible Light 10h 20m
Length of Day
9h 19m
Waxing Gibbous, 97% of the Moon is Illuminated
Dec 15
Waxing Gibbous
Dec 17
Full
Dec 25
Last Quarter
Jan 1
New
Jan 7
First Quarter

Hourly Weather History & Observations

Time (EST) Temp. Windchill Dew Point Humidity Pressure Visibility Wind Dir Wind Speed Gust Speed Precip Events Conditions
12:18 AM 26.6 °F 13.8 °F 26.6 °F 100% 29.78 in 7.0 mi WNW 17.3 mph 21.9 mph N/A   Overcast
12:38 AM 26.6 °F 15.2 °F 26.6 °F 100% 29.79 in 5.0 mi WNW 13.8 mph 18.4 mph N/A   Overcast
12:58 AM 24.8 °F 12.9 °F 24.8 °F 100% 29.80 in 4.0 mi WNW 13.8 mph 23.0 mph N/A   Overcast
1:18 AM 24.8 °F 12.9 °F 23.0 °F 93% 29.80 in 5.0 mi NW 13.8 mph - N/A   Overcast
1:38 AM 23.0 °F 10.1 °F 23.0 °F 100% 29.81 in 10.0 mi WNW 15.0 mph - N/A   Overcast
1:58 AM 23.0 °F 11.7 °F 21.2 °F 93% 29.82 in 10.0 mi WNW 11.5 mph 18.4 mph N/A   Overcast
2:18 AM 23.0 °F 12.4 °F 21.2 °F 93% 29.82 in 10.0 mi WNW 10.4 mph - N/A   Overcast
2:38 AM 23.0 °F 11.1 °F 21.2 °F 93% 29.83 in 5.0 mi WNW 12.7 mph - N/A   Overcast
2:58 AM 23.0 °F 12.4 °F 21.2 °F 93% 29.84 in 5.0 mi WNW 10.4 mph 16.1 mph N/A   Overcast
3:18 AM 23.0 °F 11.1 °F 21.2 °F 93% 29.85 in 7.0 mi West 12.7 mph - N/A   Overcast
3:38 AM 23.0 °F 11.7 °F 21.2 °F 93% 29.86 in 10.0 mi WNW 11.5 mph - N/A   Overcast
3:58 AM 23.0 °F 11.1 °F 21.2 °F 93% 29.87 in 10.0 mi West 12.7 mph - N/A   Overcast
4:18 AM 23.0 °F 11.7 °F 21.2 °F 93% 29.87 in 10.0 mi WNW 11.5 mph 18.4 mph N/A   Overcast
4:38 AM 23.0 °F 10.6 °F 21.2 °F 93% 29.88 in 7.0 mi West 13.8 mph 18.4 mph N/A   Overcast
4:58 AM 23.0 °F 9.2 °F 19.4 °F 86% 29.90 in 7.0 mi WNW 17.3 mph 25.3 mph N/A   Overcast
5:18 AM 23.0 °F 11.1 °F 19.4 °F 86% 29.90 in 10.0 mi WNW 12.7 mph 21.9 mph N/A   Overcast
5:38 AM 23.0 °F 10.6 °F 19.4 °F 86% 29.90 in 10.0 mi WNW 13.8 mph 18.4 mph N/A   Overcast
5:58 AM 23.0 °F 11.7 °F 19.4 °F 86% 29.91 in 10.0 mi West 11.5 mph - N/A   Overcast
6:18 AM 23.0 °F 15.8 °F 21.2 °F 93% 29.91 in 10.0 mi West 5.8 mph - N/A   Overcast
6:38 AM 23.0 °F 15.8 °F 21.2 °F 93% 29.91 in 10.0 mi West 5.8 mph - N/A   Overcast
6:58 AM 23.0 °F 15.8 °F 21.2 °F 93% 29.92 in 7.0 mi West 5.8 mph - N/A   Overcast
7:18 AM 23.0 °F 14.7 °F 21.2 °F 93% 29.92 in 5.0 mi West 6.9 mph - N/A   Overcast
7:38 AM 23.0 °F 15.8 °F 21.2 °F 93% 29.92 in 4.0 mi WSW 5.8 mph - N/A   Overcast
7:58 AM 23.0 °F 18.4 °F 21.2 °F 93% 29.92 in 5.0 mi WSW 3.5 mph - N/A   Overcast
8:18 AM 23.0 °F 15.8 °F 23.0 °F 100% 29.92 in 5.0 mi WSW 5.8 mph - N/A   Overcast
8:38 AM 23.0 °F 14.7 °F 23.0 °F 100% 29.93 in 4.0 mi WSW 6.9 mph - N/A   Overcast
8:58 AM 24.8 °F 16.1 °F 23.0 °F 93% 29.93 in 4.0 mi SW 8.1 mph - N/A   Overcast
9:18 AM 26.6 °F 19.1 °F 23.0 °F 86% 29.93 in 4.0 mi WSW 6.9 mph - N/A Snow Light Snow
9:38 AM 26.6 °F 18.2 °F 23.0 °F 86% 29.93 in 5.0 mi WSW 8.1 mph - N/A   Overcast
9:58 AM 26.6 °F 15.7 °F 23.0 °F 86% 29.93 in 7.0 mi WSW 12.7 mph 18.4 mph N/A   Overcast
10:18 AM 26.6 °F 14.7 °F 23.0 °F 86% 29.95 in 10.0 mi West 15.0 mph 19.6 mph N/A   Overcast
10:38 AM 26.6 °F 15.2 °F 21.2 °F 80% 29.95 in 10.0 mi West 13.8 mph 20.7 mph N/A   Overcast
10:58 AM 26.6 °F 13.1 °F 21.2 °F 80% 29.95 in 10.0 mi WSW 19.6 mph 27.6 mph N/A   Overcast
11:18 AM 26.6 °F 14.3 °F 21.2 °F 80% 29.95 in 10.0 mi West 16.1 mph 25.3 mph N/A   Overcast
11:38 AM 24.8 °F 12.9 °F 19.4 °F 80% 29.95 in 5.0 mi WSW 13.8 mph 25.3 mph N/A   Haze
11:58 AM 26.6 °F 15.2 °F 19.4 °F 74% 29.94 in 10.0 mi WSW 13.8 mph 19.6 mph N/A   Overcast
12:18 PM 24.8 °F 13.4 °F 19.4 °F 80% 29.93 in 10.0 mi WSW 12.7 mph 23.0 mph N/A Snow Light Snow
12:38 PM 26.6 °F 16.2 °F 19.4 °F 74% 29.92 in 10.0 mi WSW 11.5 mph 23.0 mph N/A   Overcast
12:59 PM 26.6 °F 15.2 °F 19.4 °F 74% 29.92 in 10.0 mi WSW 13.8 mph 23.0 mph N/A   Overcast
1:18 PM 26.6 °F 14.3 °F 19.4 °F 74% 29.91 in 10.0 mi WSW 16.1 mph 21.9 mph N/A   Overcast
1:38 PM 26.6 °F 13.1 °F 17.6 °F 69% 29.92 in 10.0 mi West 19.6 mph 27.6 mph N/A   Overcast
1:58 PM 23.0 °F 8.3 °F 15.8 °F 74% 29.93 in 10.0 mi West 19.6 mph 33.4 mph N/A   Mostly Cloudy
2:18 PM 23.0 °F 10.6 °F 15.8 °F 74% 29.93 in 10.0 mi West 13.8 mph 27.6 mph N/A   Overcast
2:38 PM 23.0 °F 10.6 °F 14.0 °F 68% 29.93 in 10.0 mi West 13.8 mph 26.5 mph N/A   Overcast
2:58 PM 23.0 °F 10.1 °F 14.0 °F 68% 29.95 in 10.0 mi West 15.0 mph 24.2 mph N/A   Overcast
3:18 PM 21.2 °F 7.3 °F 12.2 °F 68% 29.96 in 10.0 mi West 16.1 mph 27.6 mph N/A   Overcast
3:38 PM 21.2 °F 7.8 °F 10.4 °F 63% 29.97 in 10.0 mi West 15.0 mph 26.5 mph N/A   Overcast
3:58 PM 19.4 °F 2.5 °F 10.4 °F 68% 29.98 in 10.0 mi West 23.0 mph 28.8 mph N/A   Overcast
4:18 PM 19.4 °F 5.5 °F 10.4 °F 68% 29.99 in 10.0 mi West 15.0 mph 26.5 mph N/A   Overcast
4:39 PM 19.4 °F 7.2 °F 10.4 °F 68% 29.99 in 10.0 mi West 11.5 mph 20.7 mph N/A   Overcast
4:58 PM 19.4 °F 5.5 °F 12.2 °F 74% 30.00 in 10.0 mi West 15.0 mph 23.0 mph N/A   Overcast
5:18 PM 19.4 °F 7.9 °F 12.2 °F 74% 30.01 in 10.0 mi West 10.4 mph - N/A   Overcast
5:39 PM 19.4 °F 7.9 °F 12.2 °F 74% 30.01 in 10.0 mi West 10.4 mph 16.1 mph N/A   Overcast
5:58 PM 19.4 °F 8.6 °F 12.2 °F 74% 30.02 in 10.0 mi West 9.2 mph - N/A   Overcast
6:18 PM 19.4 °F 10.4 °F 12.2 °F 74% 30.02 in 10.0 mi West 6.9 mph - N/A   Overcast
6:39 PM 19.4 °F 9.5 °F 12.2 °F 74% 30.02 in 10.0 mi WSW 8.1 mph - N/A   Overcast
6:58 PM 21.2 °F 10.9 °F 12.2 °F 68% 30.04 in 10.0 mi West 9.2 mph - N/A   Overcast
7:18 PM 19.4 °F 8.6 °F 12.2 °F 74% 30.04 in 10.0 mi West 9.2 mph - N/A   Overcast
7:38 PM 19.4 °F 7.2 °F 10.4 °F 68% 30.04 in 10.0 mi West 11.5 mph 16.1 mph N/A   Overcast
7:58 PM 19.4 °F 9.5 °F 12.2 °F 74% 30.04 in 10.0 mi WSW 8.1 mph - N/A   Overcast
8:18 PM 21.2 °F 13.6 °F 12.2 °F 68% 30.05 in 10.0 mi West 5.8 mph - N/A   Overcast
8:38 PM 21.2 °F 11.7 °F 12.2 °F 68% 30.05 in 10.0 mi West 8.1 mph - N/A   Overcast
8:58 PM 21.2 °F 11.7 °F 12.2 °F 68% 30.05 in 10.0 mi WSW 8.1 mph - N/A   Overcast
9:18 PM 21.2 °F 10.9 °F 12.2 °F 68% 30.07 in 10.0 mi West 9.2 mph - N/A   Overcast
9:38 PM 21.2 °F 10.9 °F 12.2 °F 68% 30.06 in 10.0 mi West 9.2 mph - N/A   Overcast
9:58 PM 21.2 °F 10.1 °F 12.2 °F 68% 30.07 in 10.0 mi West 10.4 mph 17.3 mph N/A   Overcast
10:18 PM 21.2 °F 8.9 °F 12.2 °F 68% 30.07 in 10.0 mi West 12.7 mph 16.1 mph N/A   Overcast
10:38 PM 21.2 °F 10.1 °F 14.0 °F 74% 30.07 in 10.0 mi West 10.4 mph 17.3 mph N/A   Overcast
10:58 PM 21.2 °F 8.9 °F 14.0 °F 74% 30.08 in 10.0 mi West 12.7 mph 19.6 mph N/A   Overcast
11:18 PM 21.2 °F 10.9 °F 14.0 °F 74% 30.08 in 10.0 mi West 9.2 mph - N/A   Overcast
11:38 PM 21.2 °F 9.5 °F 14.0 °F 74% 30.08 in 10.0 mi West 11.5 mph 16.1 mph N/A   Overcast
11:58 PM 21.2 °F 10.9 °F 12.2 °F 68% 30.08 in 10.0 mi West 9.2 mph - N/A   Overcast